Location: Unspecified
(0.0000°N, 0.0000°E)
Time: 17:57:45
(UTC+00:00)

ATEX - Visible Passes

Search period start: 25 April 2019 00:00
Search period end: 05 May 2019 00:00
Orbit: 739 x 745 km, 85.0° (Epoch: 12 April)

Date Brightness Start Highest point End Pass type
(mag) Time Alt. Az. Time Alt. Az. Time Alt. Az.
25 Apr 8.1 04:14:39 10° ENE 04:16:43 12° E 04:18:47 10° ESE visible
25 Apr 8.3 18:22:14 10° WSW 18:24:30 13° W 18:26:47 10° WNW visible
26 Apr 5.1 05:07:27 10° N 05:12:29 80° E 05:17:33 10° S visible
27 Apr 7.2 04:24:17 10° NNE 04:28:25 26° E 04:32:34 10° SE visible
28 Apr 5.1 05:19:21 10° NNW 05:24:11 49° W 05:29:04 10° SSW visible
29 Apr 5.7 04:35:13 10° NNE 04:40:07 53° E 04:45:02 10° SSE visible
30 Apr 7.6 03:52:47 10° NE 03:56:03 17° E 03:59:20 10° SE visible
30 Apr 6.0 05:31:52 10° NW 05:35:53 24° W 05:39:56 10° SW visible
01 May 4.8 04:46:47 10° N 04:51:49 75° W 04:56:52 10° S visible
02 May 6.5 04:03:11 10° NNE 04:07:45 35° E 04:12:19 10° SSE visible
03 May 8.0 03:22:08 10° ENE 03:23:41 11° E 03:25:14 10° ESE visible
03 May 5.5 04:58:56 10° NNW 05:03:30 36° W 05:08:08 10° SSW visible
04 May 5.1 04:14:25 10° N 04:19:27 73° E 04:24:29 10° S visible
